Flag for Norway Weather past 2 weeks in Fetsund, Norway

Now
60 °F

Cool.


Feels Like: 60 °F
Forecast: 54 / 69 °F
Wind: 1 mph from South

Location: Oslo-Blindern

Current Time: Sep 2, 2014 at 11:28:44 PM

Latest Report: Sep 2, 2014 at 10:00 PM


Visibility: N/A

Pressure: 30.25 "Hg

Humidity: 90%

Dew point: 57 °F

Location of FetsundLocation

Historic Weather in Fetsund — Graph

°F

Fetsund temperature yesterday

Maximum temperature yesterday: 64 °F (at 2:00 PM)
Minimum temperature yesterday: 47 °F (at 5:00 AM)
Average temperature yesterday: 56 °F

Past Weeks' High & Low Weather Summary

 TemperatureHumidityPressure
High71 °F (Sep 2, 3:00 PM)96% (Aug 20, 3:00 AM)30.25 "Hg (Aug 20, 3:00 AM)
Low46 °F (Aug 24, 6:00 AM)39% (Aug 27, 2:00 PM)29.18 "Hg (Aug 18, 10:00 PM)
Average57 °F74%29.79 "Hg
* Reported Aug 18 10:00 PM — Sep 2 10:00 PM, Fetsund, Weather by CustomWeather, © 2014

Note: Actual official high and low records may vary slightly from our data, if they occured in-between our weather recording intervals... More about our weather records

Advertising

Fetsund weather history for previous 24 hours

 ConditionsComfort  
Time TempWeatherWind HumidityBarometerVisibility
10:00 PM
Sep 2
60 °FCool.1 mph90%30.25 "HgN/A
9:00 PM62 °FCool.3 mph86%30.24 "HgN/A
8:00 PM63 °FOvercast.3 mph81%30.22 "Hg43 mi
7:00 PM65 °FMild.2 mph75%30.21 "HgN/A
6:00 PM65 °FMild.3 mph73%30.20 "HgN/A
5:00 PM67 °FPartly sunny.5 mph68%30.19 "Hg40 mi
4:00 PM69 °FMild.3 mph63%30.19 "HgN/A
3:00 PM71 °FMild.3 mph57%30.19 "HgN/A
2:00 PM71 °FPassing clouds.3 mph56%30.20 "Hg47 mi
1:00 PM68 °FMild.3 mph61%30.20 "HgN/A
12:00 PM67 °FMild.3 mph60%30.20 "HgN/A
11:00 AM65 °FMild.2 mph67%30.20 "HgN/A
10:00 AM64 °FMild.2 mph70%30.19 "HgN/A
9:00 AM60 °FCool.2 mph74%30.19 "HgN/A
8:00 AM57 °FPartly sunny.1 mph85%30.18 "Hg43 mi
7:00 AM51 °FCool.No wind93%30.18 "HgN/A
6:00 AM53 °FCool.2 mph88%30.17 "HgN/A
5:00 AM53 °FOvercast.1 mph87%30.17 "Hg43 mi
4:00 AM53 °FCool.1 mph88%30.17 "HgN/A
3:00 AM53 °FCool.1 mph87%30.18 "HgN/A
2:00 AM54 °FOvercast.1 mph82%30.18 "Hg43 mi
1:00 AM54 °FCool.2 mph81%30.18 "HgN/A
12:00 AM55 °FCool.No wind79%30.18 "HgN/A
11:00 PM
Sep 1
55 °FOvercast.1 mph74%30.17 "Hg43 mi
Weather by CustomWeather, © 2014

See weather overviewHow to use our weather pages